sat.trackr.live / text

‹ back to catalog

STARLINK-36991

NORAD 68011 · 2026-039AB

PAYLOAD ACTIVE UNKNOWN

§ Identity

Operator
Country
US
Launch date
2026-02-27
Launch site
AFETR
Launch vehicle
Mass (kg)
RCS (m²)

Purposes: comms

External: N2YO · Heavens-Above · Gunter

§ Orbital elements

Epoch: 2026-05-24T20:22:49.235808Z

Period
94.27 min
Inclination
43.0017°
Eccentricity
0.0002581
Mean motion
15.27592181 rev/d
Perigee alt
481.2 km
Apogee alt
484.8 km
Semi-major
6,861.1 km
B*
5.7490e-4
RAAN
338.6081°
Arg perigee
269.5540°
Mean anomaly
90.5016°
Rev number
1,335

§ Raw data

STARLINK-369911 68011U 26039AB  26144.84918097  .00015598  00000+0  57490-3 0  99942 68011  43.0017 338.6081 0002581 269.5540  90.5016 15.27592181 13353

JSON: /api/v1/satellites/68011 · /tle

For live sub-satellite position, see the globe view (requires WebGL).

§ Visibility from observer

Set your observer location to see the next 7 days of passes ≥ 10°. The values pass through the URL so the page stays shareable.

No JS? Fill the form by hand. The geolocation button needs JavaScript.